Flag for U.S.A. Weather past 2 weeks in Rapid City, South Dakota, U.S.A.

Now
45 °F

Sunny.


Feels Like: 43 °F
Forecast: 33 / 49 °F
Wind: 5 mph from Southeast

Location: Ellsworth Air Force Base

Current Time: Jan 25, 2015 at 12:11:33 PM

Latest Report: Jan 25, 2015 at 10:58 AM


Visibility: 10 mi

Pressure: 30.08 "Hg

Humidity: 38%

Dew point: 20 °F

Location of Rapid CityLocation

Historic Weather in Rapid City — Graph

°F

Rapid City temperature yesterday

Maximum temperature yesterday: 56 °F (at 11:58 AM)
Minimum temperature yesterday: 36 °F (at 12:58 AM)
Average temperature yesterday: 44 °F

Past Weeks' High & Low Weather Summary

 TemperatureHumidityPressure
High56 °F (Jan 24, 11:58 AM)93% (Jan 21, 8:55 AM)30.71 "Hg (Jan 21, 8:55 AM)
Low7 °F (Jan 12, 6:58 AM)24% (Jan 22, 2:58 PM)29.72 "Hg (Jan 24, 12:54 PM)
Average31 °F62%30.14 "Hg
* Reported Jan 10 10:58 AM — Jan 25 10:58 AM, Rapid City, Weather by CustomWeather, © 2014

Note: Actual official high and low records may vary slightly from our data, if they occured in-between our weather recording intervals... More about our weather records

Advertising

Rapid City weather history for previous 24 hours

 ConditionsComfort  
Time TempWeatherWind HumidityBarometerVisibility
10:58 AM
Jan 25
45 °FSunny.5 mph38%30.08 "Hg10 mi
9:58 AM42 °FSunny.5 mph44%30.08 "Hg10 mi
8:58 AM38 °FSunny.8 mph53%30.10 "Hg10 mi
7:58 AM36 °FSunny.16 mph57%30.09 "Hg10 mi
6:58 AM35 °FScattered clouds.14 mph57%30.09 "Hg10 mi
5:58 AM34 °FClear.15 mph60%30.07 "Hg10 mi
4:58 AM37 °FClear.16 mph53%30.06 "Hg10 mi
3:58 AM37 °FClear.17 mph55%30.08 "Hg10 mi
2:58 AM37 °FClear.18 mph55%30.06 "Hg10 mi
1:58 AM37 °FClear.22 mph56%30.06 "Hg10 mi
12:58 AM37 °FClear.21 mph60%30.02 "Hg10 mi
11:58 PM
Jan 24
38 °FClear.25 mph61%29.99 "Hg10 mi
10:58 PM39 °FClear.22 mph61%30.00 "Hg10 mi
9:58 PM40 °FClear.26 mph58%29.99 "Hg10 mi
8:58 PM41 °FClear.26 mph60%29.99 "Hg10 mi
7:58 PM41 °FLight rain. Passing clouds.29 mph61%29.96 "Hg10 mi
6:58 PM41 °FPassing clouds.37 mph64%29.94 "Hg10 mi
6:52 PM41 °FPassing clouds.36 mph66%29.89 "Hg10 mi
6:04 PM43 °FLight rain. Mostly cloudy.36 mph66%29.88 "Hg10 mi
6:02 PM43 °FPassing clouds.39 mph66%29.88 "Hg10 mi
4:58 PM43 °FClear.38 mph62%29.85 "Hg10 mi
3:58 PM44 °FPassing clouds.30 mph72%29.84 "Hg10 mi
3:03 PM45 °FLight rain. Broken clouds.36 mph81%29.80 "Hg10 mi
2:58 PM46 °FLight rain. Broken clouds.35 mph75%29.83 "Hg10 mi
1:58 PM47 °FLight rain. Broken clouds.29 mph79%29.81 "Hg10 mi
1:03 PM54 °FScattered clouds.40 mph54%29.73 "Hg10 mi
12:58 PM54 °FLight rain. Scattered clouds.36 mph52%29.76 "Hg10 mi
12:54 PM54 °FLight rain. Scattered clouds.43 mph51%29.72 "Hg10 mi
Weather by CustomWeather, © 2014

See weather overviewHow to use our weather pages